TEVEL2-3

Last updated on Sun Jun 21 2026 00:03:20 GMT+0000 (Coordinated Universal Time)

1 63218U 25052J 26171.43510259 .00015215 00000+0 46415-3 0 9996 2 63218 97.3872 67.4058 0004851 107.4306 252.7467 15.34015837 70598
UTC large
Height (km)
Speed (km/s)
/
Latitude / Longitude
Inclination (degrees)
Orbital Period (minutes)
Azimuth
Elevation
Range (km)
Doppler Factor

Next 0 passes for location: London (51.5072 / 0.1276)

No passes found over London.
TEVEL2-3